Retour au catalogue

SL-16 DEB

ActifLEO
NORAD 22804·DEBRIS·🇷🇺 Russia

Lancé Sep 16, 1993 depuis Baikonur Cosmodrome

Loading…

Prochains Passages (prochaines 24 heures)

TLE

FraisSource: Space-Track

Époque: Sep 14, 2026, 06:39 UTC

1 22804U 93059C   26257.27776468  .00000085  00000-0  12054-3 0  9999
2 22804  70.9767  10.3005 0208951  13.6170  10.5416 13.72085941651005

Suivez SL-16 DEB en temps réel avec AllMySat

Download on the App Store